TimeCDT,TemperatureF,Dew PointF,Humidity,Sea Level PressureIn,VisibilityMPH,Wind Direction,Wind SpeedMPH,Gust SpeedMPH,PrecipitationIn,Events,Conditions,WindDirDegrees,DateUTC
12:14 AM,60.8,53.6,77,30.03,10.0,West,6.9,-,N/A,,Clear,260,2013-08-12 05:14:00
12:34 AM,60.8,53.6,77,30.03,10.0,West,4.6,-,N/A,,Clear,260,2013-08-12 05:34:00
12:54 AM,60.8,53.6,77,30.04,10.0,West,6.9,-,N/A,,Scattered Clouds,260,2013-08-12 05:54:00
1:14 AM,60.8,53.6,77,30.04,10.0,West,6.9,-,N/A,,Scattered Clouds,270,2013-08-12 06:14:00
1:34 AM,59.0,53.6,82,30.04,10.0,West,5.8,-,N/A,,Clear,270,2013-08-12 06:34:00
1:54 AM,59.0,53.6,82,30.04,10.0,West,8.1,-,N/A,,Clear,270,2013-08-12 06:54:00
2:14 AM,57.2,53.6,88,30.04,10.0,West,8.1,-,N/A,,Scattered Clouds,270,2013-08-12 07:14:00
2:34 AM,57.2,51.8,82,30.04,10.0,West,9.2,-,N/A,,Scattered Clouds,270,2013-08-12 07:34:00
2:54 AM,57.2,51.8,82,30.04,10.0,West,8.1,-,N/A,,Clear,270,2013-08-12 07:54:00
3:14 AM,57.2,51.8,82,30.04,10.0,West,6.9,-,N/A,,Clear,270,2013-08-12 08:14:00
3:34 AM,57.2,51.8,82,30.04,10.0,West,6.9,-,N/A,,Clear,270,2013-08-12 08:34:00
3:54 AM,55.4,51.8,88,30.04,10.0,West,4.6,-,N/A,,Clear,280,2013-08-12 08:54:00
4:14 AM,55.4,50.0,82,30.03,10.0,West,5.8,-,N/A,,Clear,280,2013-08-12 09:14:00
4:34 AM,55.4,50.0,82,30.04,10.0,WNW,4.6,-,N/A,,Clear,300,2013-08-12 09:34:00
4:54 AM,53.6,48.2,82,30.03,10.0,West,3.5,-,N/A,,Clear,280,2013-08-12 09:54:00
5:14 AM,53.6,48.2,82,30.03,10.0,West,5.8,-,N/A,,Clear,280,2013-08-12 10:14:00
5:34 AM,53.6,48.2,82,30.03,10.0,West,4.6,-,N/A,,Clear,280,2013-08-12 10:34:00
5:54 AM,53.6,48.2,82,30.04,10.0,West,3.5,-,N/A,,Clear,260,2013-08-12 10:54:00
6:14 AM,53.6,48.2,82,30.04,10.0,Calm,Calm,-,N/A,,Clear,0,2013-08-12 11:14:00
6:34 AM,53.6,48.2,82,30.05,7.0,West,3.5,-,N/A,,Clear,270,2013-08-12 11:34:00
6:54 AM,53.6,48.2,82,30.05,7.0,WNW,3.5,-,N/A,,Scattered Clouds,290,2013-08-12 11:54:00
7:14 AM,55.4,50.0,82,30.05,7.0,Calm,Calm,-,N/A,,Mostly Cloudy,0,2013-08-12 12:14:00
7:34 AM,55.4,50.0,82,30.06,10.0,NNW,3.5,-,N/A,,Scattered Clouds,340,2013-08-12 12:34:00
7:54 AM,55.4,51.8,88,30.06,10.0,Calm,Calm,-,N/A,,Scattered Clouds,0,2013-08-12 12:54:00
8:14 AM,57.2,51.8,82,30.06,10.0,NNW,3.5,-,N/A,,Scattered Clouds,330,2013-08-12 13:14:00
8:34 AM,59.0,53.6,82,30.06,10.0,Calm,Calm,-,N/A,,Scattered Clouds,0,2013-08-12 13:34:00
8:54 AM,60.8,55.4,82,30.07,10.0,North,5.8,-,N/A,,Scattered Clouds,10,2013-08-12 13:54:00
9:14 AM,60.8,55.4,82,30.07,10.0,NNE,6.9,-,N/A,,Clear,30,2013-08-12 14:14:00
9:34 AM,62.6,55.4,77,30.07,10.0,NNE,4.6,-,N/A,,Clear,30,2013-08-12 14:34:00
9:54 AM,64.4,57.2,77,30.08,10.0,NNE,5.8,-,N/A,,Clear,20,2013-08-12 14:54:00
10:14 AM,64.4,57.2,77,30.09,10.0,NNE,5.8,-,N/A,,Clear,30,2013-08-12 15:14:00
10:34 AM,66.2,55.4,68,30.09,10.0,NNE,9.2,-,N/A,,Clear,20,2013-08-12 15:34:00
10:54 AM,68.0,55.4,64,30.09,10.0,NNE,8.1,-,N/A,,Clear,20,2013-08-12 15:54:00
11:14 AM,69.8,55.4,60,30.09,10.0,North,8.1,-,N/A,,Clear,10,2013-08-12 16:14:00
11:34 AM,69.8,51.8,53,30.10,10.0,North,9.2,-,N/A,,Scattered Clouds,10,2013-08-12 16:34:00
11:54 AM,71.6,53.6,53,30.10,10.0,North,9.2,-,N/A,,Scattered Clouds,350,2013-08-12 16:54:00
12:14 PM,69.8,51.8,53,30.11,10.0,NNE,9.2,-,N/A,,Scattered Clouds,30,2013-08-12 17:14:00
12:34 PM,71.6,48.2,43,30.11,10.0,NE,9.2,-,N/A,,Scattered Clouds,40,2013-08-12 17:34:00
12:54 PM,71.6,48.2,43,30.11,10.0,North,9.2,-,N/A,,Scattered Clouds,10,2013-08-12 17:54:00
1:14 PM,71.6,51.8,50,30.11,10.0,North,10.4,-,N/A,,Scattered Clouds,10,2013-08-12 18:14:00
1:34 PM,71.6,48.2,43,30.11,10.0,NNE,9.2,-,N/A,,Scattered Clouds,30,2013-08-12 18:34:00
1:54 PM,69.8,48.2,46,30.12,10.0,North,8.1,-,N/A,,Scattered Clouds,350,2013-08-12 18:54:00
2:14 PM,71.6,48.2,43,30.11,10.0,NNE,9.2,-,N/A,,Scattered Clouds,20,2013-08-12 19:14:00
2:34 PM,71.6,48.2,43,30.11,10.0,North,9.2,-,N/A,,Clear,10,2013-08-12 19:34:00
2:54 PM,71.6,46.4,41,30.11,10.0,North,9.2,-,N/A,,Scattered Clouds,10,2013-08-12 19:54:00
3:14 PM,71.6,48.2,43,30.11,10.0,NNE,9.2,-,N/A,,Scattered Clouds,20,2013-08-12 20:14:00
3:34 PM,73.4,46.4,38,30.12,10.0,NNW,11.5,-,N/A,,Clear,340,2013-08-12 20:34:00
3:54 PM,73.4,46.4,38,30.11,10.0,North,10.4,-,N/A,,Scattered Clouds,10,2013-08-12 20:54:00
4:14 PM,73.4,46.4,38,30.11,10.0,North,10.4,18.4,N/A,,Scattered Clouds,10,2013-08-12 21:14:00
4:34 PM,69.8,46.4,43,30.12,10.0,North,10.4,16.1,N/A,,Scattered Clouds,360,2013-08-12 21:34:00
4:54 PM,71.6,44.6,38,30.11,10.0,North,9.2,-,N/A,,Scattered Clouds,350,2013-08-12 21:54:00
5:14 PM,73.4,46.4,38,30.11,10.0,North,15.0,21.9,N/A,,Scattered Clouds,10,2013-08-12 22:14:00
5:34 PM,71.6,42.8,35,30.11,10.0,North,10.4,18.4,N/A,,Scattered Clouds,350,2013-08-12 22:34:00
5:54 PM,71.6,44.6,38,30.11,10.0,NNW,9.2,-,N/A,,Clear,340,2013-08-12 22:54:00
6:14 PM,71.6,44.6,38,30.11,10.0,NNW,11.5,-,N/A,,Clear,340,2013-08-12 23:14:00
6:34 PM,69.8,44.6,40,30.12,10.0,North,9.2,-,N/A,,Clear,360,2013-08-12 23:34:00
6:54 PM,69.8,44.6,40,30.12,10.0,North,9.2,-,N/A,,Clear,360,2013-08-12 23:54:00
7:14 PM,68.0,46.4,46,30.11,10.0,North,6.9,-,N/A,,Clear,360,2013-08-13 00:14:00
7:34 PM,66.2,48.2,52,30.11,10.0,North,6.9,-,N/A,,Clear,350,2013-08-13 00:34:00
7:54 PM,64.4,48.2,56,30.11,10.0,North,6.9,-,N/A,,Clear,350,2013-08-13 00:54:00
8:14 PM,62.6,48.2,59,30.11,10.0,North,6.9,-,N/A,,Clear,350,2013-08-13 01:14:00
8:34 PM,60.8,50.0,68,30.11,10.0,NNW,5.8,-,N/A,,Clear,340,2013-08-13 01:34:00
8:54 PM,57.2,48.2,72,30.12,10.0,NNW,5.8,-,N/A,,Clear,340,2013-08-13 01:54:00
9:14 PM,55.4,48.2,77,30.13,10.0,NNW,5.8,-,N/A,,Clear,330,2013-08-13 02:14:00
9:34 PM,55.4,46.4,72,30.13,10.0,NW,4.6,-,N/A,,Clear,320,2013-08-13 02:34:00
9:54 PM,55.4,48.2,77,30.14,10.0,NW,5.8,-,N/A,,Clear,310,2013-08-13 02:54:00
10:14 PM,55.4,46.4,72,30.14,10.0,NW,5.8,-,N/A,,Clear,310,2013-08-13 03:14:00
10:34 PM,53.6,46.4,77,30.15,10.0,NW,4.6,-,N/A,,Clear,320,2013-08-13 03:34:00
10:54 PM,53.6,46.4,77,30.15,10.0,NW,3.5,-,N/A,,Clear,320,2013-08-13 03:54:00
11:14 PM,55.4,46.4,72,30.15,10.0,Calm,Calm,-,N/A,,Clear,0,2013-08-13 04:14:00
11:35 PM,53.6,46.4,77,30.16,10.0,NNW,3.5,-,N/A,,Clear,330,2013-08-13 04:35:00
11:54 PM,53.6,46.4,77,30.16,10.0,NNW,3.5,-,N/A,,Clear,330,2013-08-13 04:54:00